2021-062B (49009 NORAD) Tracking and Keplerian Element Data

This shows tracking and keplerian element data for the satellite.

Feedback or suggestion? Click here.




ElementValue
Catalog49009
Name2021-062B
Epoch Orbit357
Epoch Day211.05008356
Epoch Year2021
RAAN213.3951
Inclination98.6908
Eccentricity0.0099076
Argument of Perigee109.7001
Mean Anonmoly328.9409
Mean Motion14.2895136
Decay Rate0.00118149
L11 49009U 21062B 21211.05008356 .00118149 00000-0 43606-1 0 9991
L22 49009 98.6908 213.3951 0099076 109.7001 328.9409 14.28951360 3576

Live tracking and technical data element details for 2021-062B (NORAD 49009). 2021-062B can be tracked NOW for your location showing map with azimuth and elevation plus other details from your city location.

Track the satellite on the map from your city or location and see movement details for azimuth, elevation, latitude, longitude, range, height, and movement on the map or in text.







IsCatalogInMostPopularTable: catalog: 49009, numindb: 1
Update: records affected: 1



GetName: 49009 2021-062B

Hit Count: updated at: Sat, 31 Jul 2021 14:30:05 GMT